Regional Weather Roundup
Issued by NWS Green Bay, WI

Home | Current Version | Previous Version | Graphics & Text | Print | Product List | Glossary Off
Versions: 1 2 3 4 5 6 7 8 9 10 11 12 13 14 15 16 17 18 19 20 21 22 23 24 25 26 27 28 29 30 31 32 33 34 35 36 37 38 39 40 41 42 43 44 45 46 47 48 49 50

000
ASUS43 KGRB 280859
RWRGRB

NORTH-CENTRAL AND NORTHEAST WISCONSIN REGIONAL WEATHER ROUNDUP
NATIONAL WEATHER SERVICE GREEN BAY WI
400 AM CDT MON JUL 28 2014

WIZ005-009-010>012-018-019-281000-
NORTH CENTRAL WISCONSIN

CITY           SKY/WX    TMP DP  RH WIND       PRES   REMARKS
IRONWOOD       CLEAR     45  45 100 W3        30.09S
MANITOWISH WTR NOT AVBL
ARBOR VITAE    NOT AVBL
EAGLE RIVER    NOT AVBL
LAND O LAKES   NOT AVBL
RHINELANDER    CLEAR     50  48  93 NW3       30.09R
PHILLIPS       NOT AVBL
ANTIGO         NOT AVBL
TOMAHAWK       NOT AVBL
MERRILL        NOT AVBL
$$

WIZ013-073-281000-
NORTHEAST WISCONSIN

CITY           SKY/WX    TMP DP  RH WIND       PRES   REMARKS
IRON MOUNTAIN  CLEAR     47  44  90 N3        30.03S
MARINETTE      CLEAR     50  43  76 N9        30.00S
$$

WIZ017-030-035>037-045-281000-
CENTRAL WISCONSIN

CITY           SKY/WX    TMP DP  RH WIND       PRES   REMARKS
MEDFORD        NOT AVBL
WAUSAU         CLEAR     52  50  93 NW8       30.08R
MOSINEE        NOT AVBL
MARSHFIELD     CLEAR     52  49  89 NW9       30.10R
WISC RAPIDS    CLEAR     54  50  86 MISG      30.09R
STEVENS POINT  NOT AVBL
WAUPACA        NOT AVBL
SHAWANO        NOT AVBL
CLINTONVILLE   NOT AVBL
$$

WIZ038-039-048-051-281000-
FOX VALLEY

CITY           SKY/WX    TMP DP  RH WIND       PRES   REMARKS
NWS GREEN BAY  CLEAR     53  46  77 NW10      30.02R
APPLETON       NOT AVBL
OSHKOSH        CLEAR     56  50  80 N12G22    30.02R
FOND DU LAC    CLEAR     55  48  77 N12       30.02R
$$

WIZ022-050-052-281000-
EAST CENTRAL WISCONSIN

CITY           SKY/WX    TMP DP  RH WIND       PRES   REMARKS
STURGEON BAY   CLEAR     52  45  76 N18G26    29.99R
MANITOWOC      NOT AVBL
SHEBOYGAN      CLEAR     55  47  74 N12       29.98R
$$

LMZ563-521-522-541>543-281000-
LAKESHORE

STATION/POSITION TIME  TEMP    WIND        PRES    VSBY  WAVE
                       AIR SEA DIR/SP/G                  HT/PER
                 (UTC) (F)     (DEG/KT/KT) (MB)    (MI)  (FT/S)
SHEBOYGAN LKSHOR 0800   59     330/ 15/ 16 1014.7R
KEWAUNEE LKSHORE 0800   56     330/ 11/ 16 1015.3R
NORTHPORT PIER   0800   54     350/ 20/ 23 1015.2R
N MID LAKE BUOY  0800   54 54  350/ 21/ 25 1013.1R         4/ 5
CHAMBERS ISLAND  0800   55     340/ 18/ 23 1015.9R
MENOMINEE LKSHOR 0800   53     350/ 15/ 18 1016.5R
$$



USA.gov is the U.S. government's official web portal to all federal, state and local government web resources and services.